COSMOS 1275 DEB

Satellite information

Favourite Embed

Satellite Type and Status

DEBRISIN ORBIT

Key statistics

Satellite COSMOS 1275 DEB at a glance.

Uptime

16263

Days in orbit

Revolutions

≈ 13.8

Per day

Orbit

LEO

Low Earth Orbit

Inclination

83.0

Latest

Satellite identification and parameters

Extended collection of information and parameters for COSMOS 1275 DEB.

Object identification

Identified? True

Debris? True

Object name: COSMOS 1275 DEB

International designator: 1981-053NF

Object number (NORAD): 39945

Object ID (CCSDS): 39945

Country: COMMONWEALTH OF INDEPENDENT STATES (CIS)

Current information (Y/N): Y

RCS size: SMALL

Orbital parameters

Period: 104.318 minutes

Inclination: 82.953 deg

SMA: 7340.624 km

Apoapsis: 991.755 km

Periapsis: 933.223 km

RAAN: 349.4602 deg

Eccentricy: 0.00398684

Argument of periapsis: 164.7519 deg

Mean anomaly: 9.5175 deg

Mean motion: 13.80394835 rev/day

Mean motion (dot): 0.00000441 rev/day2

B* drag term: 0.00040493908 1/REarth

Two-line elements (TLE)

Creation date: Dec. 11, 2025, 3:54 a.m.

Reference frame: TEME

Reference center: EARTH

Epoch: Dec. 10, 2025, 6:21 p.m. UTC

TLE line 0: 0 COSMOS 1275 DEB

TLE line 1: 1 39945U 81053NF 25344.76513274 .00000441 00000-0 40494-3 0 9993

TLE line 2: 2 39945 82.9530 349.4602 0039868 164.7519 9.5175 13.80394835579769

Live tracking on map

Real-time ground track for satellite COSMOS 1275 DEB.

In-orbit conjunctions

A list of the most updated potential collisions computed for object COSMOS 1275 DEB.

Target Orbit TCA Probability of collision Miss distance Type
FENGYUN 1C DEB SSO 2025-11-17 20:01:58 0.000121065 233.0 (m) DEBRIS
COSMOS 1275 DEB LEO 2024-07-10 03:25:28 0.0002840235 248.0 (m) DEBRIS

Associated space launch

Navigation satellite providing location information for the Tsiklon-B navigation system

COSMOS 1275 DEB was lifted into orbit during the mission ‘Kosmos-3M | Parus 27’, on board a Kosmos-3M space rocket.

The launch took place on June 4, 1981, 3:41 p.m. from 132/2.

For more information about the launch, click the button.

Launch to space Kosmos-3M | Parus 27
Kosmos-3M | Parus 27

Agency: N/A

Status: Launch Successful

Launch date: June 4, 1981, 3:41 p.m. UTC

Rocket: Kosmos-3M

Launch pad: 132/2

Location: Plesetsk Cosmodrome, Russian Federation

...

Latest news about this satellite

There are no fresh news available about this satellite. Check back as we update our databases every day.


Newsletter sign-up

Weekly statistics, charts and insights to help you stay on top of the space industry.